星链-11704 (STARLINK-11704)

导读 | 豆包AI

STARLINK-11704是美国SpaceX星链星座中的一颗卫星,于2025年6月3日发射入轨。星链星座旨在为全球提供高速互联网接入服务,该卫星延续了星链星座的技术设计,承担星座组网与服务覆盖任务,进一步拓展了星链在全球范围的通信服务覆盖能力,助力SpaceX完成大规模低轨卫星星座的构建目标。

基本信息
目录编号:
64245
目录名称:
STARLINK-11704
国际标识:
2025-119N
轨道中心:
EARTH
卫星名称:
星链-11704
卫星全名:
星链-11704 (STARLINK-11704)
卫星状态:
在轨 (已飞行284 天)
发射日期:
2025-06-03 UTC
国别 :
美国 (US)
星等 :
--
轨道信息
数据来源 国际轨道数据
星历时间: 2026-03-14T15:22:58+0800
9小时前
查看轨道信息
半长轴: 6734.471km
偏心率: 0.0002325
轨道倾角: 43.001°
近地点辐角 306.847°
升交点赤经 181.042°
平近点角 53.218°
近地点: 354.768km
远地点: 357.9km
周期: 91.667分钟
每日圈数: 15.708966
详细信息
固有亮度:
5
最大亮度:
2.5
卫星平台:
Starlink V1.0
覆盖范围:
全球
运营商:
太空探索技术公司
运营商所在国:
美国
制造商(研发单位):
太空探索技术公司
制造商所在国:
美国
使用方式:
暂无
卫星简介
Starlink 计划是 SpaceX 推出的全球卫星互联网项目,通过发射低轨道卫星,为全球尤其是偏远地区提供高速、低延迟的互联网服务。自 2019 年起,Starlink 已部署数千颗卫星,旨在缩小全球数字鸿沟,推动互联网普及。该项目还为军事、航空等行业提供通信支持,带来广泛经济效益。
2D轨道图
3D轨道图
轨道高度分析图
轨道倾角分析图
轨道综合分析图
查看轨道综合分析图